Tracking 27420 objects as of 28-May-2023
HD Live streaming from Space Station
objects crossing your sky now

ARKSAT 1

Track ARKSAT 1 now!
10-day predictions
ARKSAT 1 is classified as:


NORAD ID: 56311
Int'l Code: 1998-067VC
Perigee: 406.0 km
Apogee: 414.6 km
Inclination: 51.6 °
Period: 92.6 minutes
Semi major axis: 6781 km
RCS: Unknown
Launch date: November 20, 1998
Source: United States (US)
Launch site: TYURATAM MISSILE AND SPACE COMPLEX (TTMTR)

Uplink (MHz):
Downlink (MHz): 435.450
Beacon (MHz):
Mode: 9600bps FSK
Call sign:
Status: Unknown

Your satellite tracking list
Your tracking list is empty




NASA's NSSDC Master Catalog

Two Line Element Set (TLE):
1 56311U 98067VC  23147.49931079  .00045054  00000-0  67059-3 0  9993
2 56311  51.6392  70.4164 0006338  34.7824 325.3580 15.54652436  5141
Source of the keplerian elements: AFSPC